"Pseudo-MPEC" for C8GK572

Created 2022 Nov 26 23:22:09 UT using Find_Orb

Click here for an explanation of pseudo-MPECs

 
 Astrometry: 
     C8GK572*1C2022 11 23.39596703 25 49.753+49 59 45.60   ~BNAb 20.68GVNEOCPG96
     C8GK572 1C2022 11 23.40183103 25 49.483+49 59 44.41   ~BNAb 20.81GVNEOCPG96
     C8GK572 1C2022 11 23.40772403 25 49.271+49 59 42.61   ~BNAb 20.62GVNEOCPG96
     C8GK572 1C2022 11 23.41358203 25 49.069+49 59 41.82   ~BNAb 21.18GVNEOCPG96
     C8GK572 mC2022 11 24.17908303 25 24.870+49 57 13.40   ~BO5M       VNEOCPI52
     C8GK572 mC2022 11 24.18937303 25 24.480+49 57 11.30   ~BO5M       VNEOCPI52
     C8GK572 mC2022 11 24.20266103 25 23.930+49 57 09.80   ~BO5M       VNEOCPI52

Station data:
(G96) Mt. Lemmon Survey  (N32.442751 W110.788720)  US/Arizona.  Observers T.
   A. Pruyne, B. M. Africano, E. J. Christensen, G. A. Farneth, D. C. Fuls,
   A. R. Gibbs, A. D. Grauer, H. Gröller, J. A. Johnson, R. A. Kowalski, S.
   M. Larson, G. J. Leonard, D. Rankin, R. L. Seaman, F. C. Shelly, K. W.
   Wierzchoś. 1.5-m reflector + 10K CCD.
(I52) Steward Observatory, Mt. Lemmon Station  (N32.442544 W110.788920)
   US/Arizona.  Observers T. A. Pruyne, B. M. Africano, E. J. Christensen, G.
   A. Farneth, D. C. Fuls, A. R. Gibbs, A. D. Grauer, H. Gröller, J. A.
   Johnson, R. A. Kowalski, S. M. Larson, G. J. Leonard, D. Rankin, R. L.
   Seaman, F. C. Shelly, K. W. Wierzchoś. 1.0-m reflector + CCD.

Orbital elements:  C8GK572
   Perihelion 2023 Jan 24.14590 +/- 1114 TT =  3:30:05 (JD 2459968.64590)
Epoch 2022 Nov 24.0 TT = JDT 2459907.5   Earth MOID: 0.4188   Ju: 0.6149
M 348.46890791 +/- 48               (J2000 ecliptic)          AutoNEOCP
n   0.18858323 +/- 0.0947           Peri.  160.19414 +/- 57
a   3.01162334 +/- 1.01             Node   303.36084 +/- 29
e   0.5367827 +/- 0.228             Incl.   12.80706 +/- 15
P   5.23                   H 20.4   G  0.15   U 11.3  SR
q 1.39503593 +/- 2.66    Q 4.62821075 +/- 3.37
From 7 observations 2022 Nov. 23-24 (19.4 hr); mean residual 0".24
Residuals in arcseconds: 
221123 G96  .09+  .04+    221123 G96  .23+  .17+    221124 I52  .02+  .53+    
221123 G96  .26-  .14+    221124 I52  .13-  .14-    
221123 G96  .05-  .35-    221124 I52  .11+  .40-    

Ephemerides (geocentric):
Date (UTC) HH   RA             Dec           delta  r     elong  mag " sig PA
---- --------  ------------   ------------  ------ ------ -----  --- --------
2022 11 26 23  03 23 54.087   +49 44 43.83  .58695 1.5233 149.9 21.1 71.0  92
2022 11 27 00  03 23 52.797   +49 44 30.20  .58678 1.5232 149.9 21.1 72.8  92
2022 11 27 01  03 23 51.509   +49 44 16.50  .58661 1.5230 149.9 21.1 74.7  92
2022 11 27 02  03 23 50.224   +49 44 02.72  .58644 1.5228 149.9 21.1 76.6  91
2022 11 27 03  03 23 48.940   +49 43 48.88  .58627 1.5227 149.9 21.1 78.5  91
2022 11 27 04  03 23 47.659   +49 43 34.96  .58610 1.5225 149.9 21.1 80.4  91
2022 11 27 05  03 23 46.379   +49 43 20.97  .58593 1.5223 149.9 21.1 82.4  91
2022 11 27 06  03 23 45.102   +49 43 06.90  .58576 1.5222 149.9 21.1 84.3  90
2022 11 27 07  03 23 43.828   +49 42 52.77  .58559 1.5220 149.9 21.1 86.3  90
2022 11 27 08  03 23 42.555   +49 42 38.56  .58543 1.5218 149.9 21.1 88.4  90
2022 11 27 09  03 23 41.285   +49 42 24.29  .58526 1.5216 149.9 21.1 90.4  90
2022 11 27 10  03 23 40.017   +49 42 09.94  .58509 1.5215 149.9 21.1 92.5  89
2022 11 27 11  03 23 38.751   +49 41 55.51  .58492 1.5213 149.9 21.1 94.6  89
2022 11 27 12  03 23 37.487   +49 41 41.02  .58476 1.5211 149.9 21.1 96.7  89
2022 11 27 13  03 23 36.226   +49 41 26.46  .58459 1.5210 149.9 21.1 98.9  89
2022 11 27 14  03 23 34.967   +49 41 11.82  .58442 1.5208 149.9 21.1  101  89
2022 11 27 15  03 23 33.711   +49 40 57.11  .58426 1.5206 149.9 21.1  103  88
2022 11 27 16  03 23 32.457   +49 40 42.33  .58409 1.5204 149.9 21.1  105  88
2022 11 27 17  03 23 31.205   +49 40 27.48  .58392 1.5203 149.9 21.1  108  88
2022 11 27 18  03 23 29.955   +49 40 12.55  .58376 1.5201 149.9 21.1  110  88
2022 11 27 19  03 23 28.708   +49 39 57.56  .58359 1.5199 149.9 21.1  112  88
2022 11 27 20  03 23 27.463   +49 39 42.49  .58343 1.5198 149.9 21.1  115  87
2022 11 27 21  03 23 26.221   +49 39 27.35  .58326 1.5196 149.8 21.1  117  87
2022 11 27 22  03 23 24.981   +49 39 12.14  .58310 1.5194 149.8 21.1  119  87
2022 11 27 23  03 23 23.744   +49 38 56.86  .58293 1.5193 149.8 21.1  122  87
2022 11 28 00  03 23 22.509   +49 38 41.51  .58277 1.5191 149.8 21.1  124  87
2022 11 28 01  03 23 21.276   +49 38 26.08  .58261 1.5189 149.8 21.1  127  86
2022 11 28 02  03 23 20.046   +49 38 10.59  .58244 1.5188 149.8 21.1  129  86
2022 11 28 03  03 23 18.819   +49 37 55.02  .58228 1.5186 149.8 21.1  131  86
2022 11 28 04  03 23 17.594   +49 37 39.38  .58212 1.5184 149.8 21.1  134  86
2022 11 28 05  03 23 16.371   +49 37 23.67  .58195 1.5183 149.8 21.1  137  86
2022 11 28 06  03 23 15.151   +49 37 07.88  .58179 1.5181 149.8 21.1  139  86
2022 11 28 07  03 23 13.934   +49 36 52.03  .58163 1.5179 149.8 21.1  142  85
2022 11 28 08  03 23 12.719   +49 36 36.10  .58147 1.5177 149.8 21.1  144  85
2022 11 28 09  03 23 11.507   +49 36 20.10  .58131 1.5176 149.8 21.1  147  85
2022 11 28 10  03 23 10.297   +49 36 04.03  .58114 1.5174 149.8 21.1  150  85
2022 11 28 11  03 23 09.090   +49 35 47.89  .58098 1.5172 149.8 21.1  152  85
2022 11 28 12  03 23 07.886   +49 35 31.68  .58082 1.5171 149.8 21.1  155  85
2022 11 28 13  03 23 06.684   +49 35 15.40  .58066 1.5169 149.8 21.0  158  84
2022 11 28 14  03 23 05.485   +49 34 59.04  .58050 1.5167 149.8 21.0  160  84
2022 11 28 15  03 23 04.289   +49 34 42.62  .58034 1.5166 149.8 21.0  163  84
2022 11 28 16  03 23 03.095   +49 34 26.12  .58018 1.5164 149.8 21.0  166  84
2022 11 28 17  03 23 01.904   +49 34 09.55  .58002 1.5162 149.8 21.0  169  84
2022 11 28 18  03 23 00.716   +49 33 52.91  .57986 1.5161 149.8 21.0  172  84
2022 11 28 19  03 22 59.530   +49 33 36.20  .57970 1.5159 149.8 21.0  175  84
2022 11 28 20  03 22 58.347   +49 33 19.41  .57954 1.5157 149.8 21.0  178  83
2022 11 28 21  03 22 57.167   +49 33 02.56  .57938 1.5156 149.8 21.0  180  83
2022 11 28 22  03 22 55.990   +49 32 45.63  .57923 1.5154 149.8 21.0  183  83